Home > Weather > Liestal > Past weeks

Flag for Switzerland Weather for the Past 2 Weeks in Liestal, Basel-Land, Switzerland

Now
39 °F

Broken clouds.


Feels Like: 32 °F
Forecast: 33 / 43 °F
Wind: 13 mph from Southwest

Location: Bale-Mulhouse

Current Time: Feb 10, 2016 at 10:27:54 AM

Latest Report: Feb 10, 2016 at 10:00 AM


Visibility: N/A

Pressure: 29.59 "Hg

Humidity: 70%

Dew point: 30 °F

Location of LiestalLocation

Historic Weather in Liestal — Graph

°F

Liestal Temperature Yesterday

Maximum temperature yesterday: 57 °F (at 11:30 AM)
Minimum temperature yesterday: 37 °F (at 10:04 PM)
Average temperature yesterday: 49 °F

High & Low Weather Summary for the Past Weeks

 TemperatureHumidityPressure
High57 °F (Jan 26, 3:30 PM)100% (Jan 28, 5:30 PM)30.51 "Hg (Jan 28, 5:30 PM)
Low30 °F (Jan 30, 6:00 AM)51% (Jan 26, 2:00 PM)29.27 "Hg (Feb 9, 4:00 PM)
Average45 °F82%30.12 "Hg
* Reported Jan 26 9:00 AM — Feb 10 9:00 AM, Liestal, Weather by CustomWeather, © 2016

Note: Actual official high and low records may vary slightly from our data, if they occured in-between our weather recording intervals... More about our weather records

Advertising

Liestal Weather History for the Previous 24 Hours

 ConditionsComfort  
Time TempWeatherWind HumidityBarometerVisibility
9:00 AM
Wed, Feb 10
37 °FPartly sunny.10 mph81%29.59 "HgN/A
8:30 AM36 °FSprinkles. Broken clouds.15 mph87%29.59 "Hg5 mi
8:00 AM37 °FBroken clouds.13 mph81%29.56 "HgN/A
7:30 AM36 °FPassing clouds.8 mph87%29.56 "HgN/A
7:00 AM36 °FLight rain. Passing clouds.12 mph93%29.56 "HgN/A
6:30 AM36 °FLight rain. Partly cloudy.16 mph93%29.53 "HgN/A
6:00 AM37 °FPassing clouds.17 mph81%29.53 "HgN/A
5:30 AM36 °FLight rain. Passing clouds.13 mph93%29.50 "HgN/A
5:00 AM36 °FLight rain. Passing clouds.14 mph87%29.50 "HgN/A
4:30 AM37 °FSprinkles. Passing clouds.13 mph81%29.47 "HgN/A
4:00 AM36 °FLight rain. Passing clouds.16 mph93%29.47 "HgN/A
3:30 AM36 °FLight rain. Mostly cloudy.15 mph93%29.47 "HgN/A
3:00 AM37 °FLight rain. Passing clouds.16 mph87%29.47 "HgN/A
2:30 AM37 °FLight rain. Partly cloudy.17 mph81%29.47 "HgN/A
1:30 AM37 °FPartly cloudy.17 mph81%29.47 "HgN/A
1:00 AM37 °FPassing clouds.17 mph81%29.47 "HgN/A
12:30 AM41 °FClear.24 mph61%29.42 "Hg10 mi
12:00 AM39 °FClear.25 mph65%29.42 "Hg10 mi
11:00 PM
Tue, Feb 9
39 °FPassing clouds.9 mph75%29.47 "HgN/A
10:30 PM39 °FPassing clouds.17 mph75%29.47 "HgN/A
10:04 PM37 °FPartly cloudy.21 mph87%29.45 "HgN/A
9:30 PM43 °FLots of rain. Partly cloudy.33 mph76%29.42 "Hg5 mi
9:00 PM46 °FMostly cloudy.14 mph62%29.39 "HgN/A
8:30 PM46 °FPartly cloudy.22 mph66%29.39 "HgN/A
8:00 PM46 °FPassing clouds.17 mph66%29.36 "HgN/A
7:30 PM46 °FPartly cloudy.20 mph71%29.33 "HgN/A
7:00 PM46 °FMostly cloudy.16 mph71%29.33 "HgN/A
6:30 PM46 °FSprinkles. Passing clouds.21 mph71%29.33 "HgN/A
6:00 PM46 °FLots of rain. Overcast.28 mph82%29.33 "Hg2 mi
5:30 PM54 °FSprinkles. Mostly cloudy.23 mph58%29.27 "HgN/A
5:00 PM54 °FSprinkles. Mostly cloudy.20 mph63%29.27 "HgN/A
4:30 PM54 °FSprinkles. Mostly cloudy.22 mph63%29.27 "HgN/A
4:00 PM55 °FBroken clouds.22 mph55%29.27 "HgN/A
3:30 PM55 °FPartly sunny.20 mph59%29.30 "HgN/A
3:00 PM55 °FBroken clouds.21 mph59%29.30 "HgN/A
2:00 PM55 °FBroken clouds.13 mph63%29.36 "HgN/A
1:30 PM54 °FPartly sunny.15 mph67%29.36 "HgN/A
1:00 PM54 °FSprinkles. Partly sunny.24 mph67%29.42 "HgN/A
12:30 PM57 °FBroken clouds.28 mph55%29.42 "HgN/A
11:30 AM57 °FMostly cloudy.22 mph55%29.47 "HgN/A
11:00 AM55 °FMostly cloudy.20 mph63%29.50 "HgN/A
10:30 AM55 °FMostly cloudy.23 mph59%29.50 "HgN/A
10:00 AM55 °FMore clouds than sun.20 mph59%29.53 "HgN/A
Weather by CustomWeather, © 2016

See weather overviewHow to use our weather pages